Weather History for Cincinnati, OH

Change the Weather History Date:

Tuesday, December 31, 2013

  Actual Average Record
Temperature  
Mean Temperature 30 °F -  
Max Temperature 35 °F 40 °F 70 °F (1951)
Min Temperature 24 °F 26 °F 3 °F (1976)
Degree Days  
Heating Degree Days 36    
Moisture  
Dew Point 17 °F    
Average Humidity 64    
Maximum Humidity 81    
Minimum Humidity 48    
Precipitation  
Precipitation 0.00 in - - ()
Sea Level Pressure  
Sea Level Pressure 30.32 in    
Wind  
Wind Speed 9 mph (SW)    
Max Wind Speed 16 mph    
Max Gust Speed 25 mph    
Visibility 10 miles    
Events Snow    
Averages and records for this station are not official NWS values.
T = Trace of Precipitation, MM = Missing Value Source: NWS Daily Summary

Daily Weather History Graph

Daily Weather History Graph

Search for Another Location

Airport:

Trip Planner

Search our weather history database for the weather conditions in past years. The results will help you decide how hot, cold, wet, or windy it might be!

Date:

Astronomy

Dec. 31, 2013 Rise Set
Actual Time 7:56 AM EST 5:25 PM EST
Civil Twilight 7:26 AM EST 5:55 PM EST
Nautical Twilight 6:53 AM EST 6:28 PM EST
Astronomical Twilight 6:20 AM EST 7:01 PM EST
Moon 6:49 AM EST (12/31) 4:59 PM EST (12/31)
Length of Visible Light 10h 28m
Length of Day
9h 28m
Waning Crescent, 1% of the Moon is Illuminated
Dec 31
Waning Crescent
Jan 1
New
Jan 7
First Quarter
Jan 15
Full
Jan 24
Last Quarter

Hourly Weather History & Observations

Time (EST) Temp. Windchill Dew Point Humidity Pressure Visibility Wind Dir Wind Speed Gust Speed Precip Events Conditions
12:53 AM 24.1 °F 14.4 °F 17.1 °F 75% 30.23 in 10.0 mi SSW 9.2 mph - N/A   Overcast
1:53 AM 24.1 °F 17.0 °F 16.0 °F 71% 30.23 in 10.0 mi SSW 5.8 mph - N/A   Mostly Cloudy
2:53 AM 25.0 °F 15.5 °F 15.1 °F 66% 30.24 in 10.0 mi SW 9.2 mph - N/A   Overcast
3:53 AM 25.0 °F 13.6 °F 14.0 °F 63% 30.22 in 10.0 mi SW 12.7 mph - N/A   Overcast
4:53 AM 25.0 °F 13.1 °F 14.0 °F 63% 30.23 in 10.0 mi SW 13.8 mph 19.6 mph N/A   Overcast
5:53 AM 26.1 °F 16.2 °F 14.0 °F 60% 30.23 in 10.0 mi WSW 10.4 mph - N/A   Overcast
6:53 AM 26.1 °F 16.8 °F 14.0 °F 60% 30.25 in 10.0 mi West 9.2 mph 18.4 mph N/A   Overcast
7:53 AM 26.1 °F 13.6 °F 14.0 °F 60% 30.30 in 10.0 mi West 16.1 mph 25.3 mph N/A   Overcast
8:53 AM 26.1 °F 15.0 °F 15.1 °F 63% 30.33 in 10.0 mi West 12.7 mph - N/A   Overcast
9:53 AM 26.1 °F 13.6 °F 16.0 °F 66% 30.39 in 10.0 mi WSW 16.1 mph 23.0 mph 0.00 in Snow Light Snow
10:53 AM 27.0 °F 14.7 °F 15.1 °F 61% 30.43 in 10.0 mi West 16.1 mph 23.0 mph 0.00 in   Mostly Cloudy
11:53 AM 28.9 °F 20.4 °F 15.1 °F 56% 30.40 in 10.0 mi West 9.2 mph - N/A   Clear
12:53 PM 32.0 °F 23.6 °F 17.1 °F 54% 30.40 in 10.0 mi WSW 10.4 mph 17.3 mph N/A   Clear
1:53 PM 33.1 °F 26.9 °F 17.1 °F 52% 30.39 in 10.0 mi SW 6.9 mph - N/A   Clear
2:53 PM 35.1 °F 28.6 °F 17.1 °F 48% 30.37 in 10.0 mi West 8.1 mph - N/A   Clear
3:53 PM 34.0 °F 26.6 °F 16.0 °F 48% 30.36 in 10.0 mi SW 9.2 mph - N/A   Clear
4:53 PM 33.1 °F 26.9 °F 17.1 °F 52% 30.35 in 10.0 mi SW 6.9 mph - N/A   Clear
5:53 PM 30.0 °F 23.2 °F 19.0 °F 64% 30.36 in 10.0 mi SSW 6.9 mph - N/A   Clear
6:53 PM 28.9 °F 25.2 °F 21.0 °F 72% 30.35 in 10.0 mi SSW 3.5 mph - N/A   Clear
7:53 PM 28.0 °F 24.2 °F 21.0 °F 75% 30.35 in 10.0 mi SSW 3.5 mph - N/A   Clear
8:53 PM 25.0 °F 19.3 °F 19.9 °F 81% 30.34 in 10.0 mi SW 4.6 mph - N/A   Clear
9:53 PM 27.0 °F - 21.0 °F 78% 30.33 in 10.0 mi Calm Calm - N/A   Clear
10:53 PM 26.1 °F 21.9 °F 19.0 °F 75% 30.31 in 10.0 mi SSW 3.5 mph - N/A   Clear
11:53 PM 25.0 °F - 19.9 °F 81% 30.32 in 10.0 mi Calm Calm - N/A   Clear